Location: Aix-en-Ergny
(50.5839°N, 1.9996°E)
Time: 13:01:38
(UTC+00:00)

BREEZE-M R/B - Pass Details

Date: 23 October 2019
Orbit: 309 x 4552 km, 49.7° (Epoch: 21 November)

Event Time Altitude Azimuth Distance (km) Brightness Sun altitude
Exits shadow 04:51:56 24° 273° (W) 1,715 4.7 -15.8°
Maximum altitude 04:55:31 82° 188° (S) 1,193 4.4 -15.2°
Drops below altitude 10° 05:07:24 10° 103° (ESE) 4,943 9.0 -13.3°
Sets 05:12:49 0° 104° (ESE) 6,681 10.2 -12.4°
